When you browse on this site, cookies collect data to enhance your experience and personalize the content and advertising you see.
Visit our Privacy Policy to learn more. By continuing to use the site, you agree to this use of cookies and data.
  • In Hungary
  • List of Countries
  • For 7 days
  • Water Temperature
  • Weather Map
  • News
  • Weather Widgets
  • user-avatar
    Login

    Hourly Weather Caririacu

    Today, 18 November, Monday

    Time Temperature Precipitation Wind Pressure Humidity
    00:00 +24°C° 0 mm 2 mps 710 mmHg 69%
    01:00 +24°C° 0 mm 1 mps 710 mmHg 75%
    02:00 +23°C° 0 mm 1 mps 710 mmHg 80%
    03:00 +23°C° 0 mm 1 mps 710 mmHg 85%
    04:00 +23°C° 0 mm 1 mps 710 mmHg 85%
    05:00 +23°C° 0 mm 1 mps 711 mmHg 84%
    06:00 +24°C° 0 mm 1 mps 711 mmHg 84%
    07:00 +26°C° 0 mm 1 mps 712 mmHg 71%
    08:00 +29°C° 0 mm 2 mps 712 mmHg 58%
    09:00 +32°C° 0 mm 2 mps 713 mmHg 45%
    10:00 +35°C° 0 mm 2 mps 713 mmHg 40%
    11:00 +37°C° 0 mm 2 mps 712 mmHg 34%
    12:00 +39°C° 0 mm 2 mps 712 mmHg 28%
    13:00 +39°C° 0 mm 2 mps 711 mmHg 26%
    14:00 +39°C° 0 mm 1 mps 710 mmHg 24%
    15:00 +39°C° 0 mm 1 mps 710 mmHg 23%
    16:00 +36°C° 0 mm 1 mps 709 mmHg 26%
    17:00 +32°C° 0 mm 0 mps 709 mmHg 30%
    18:00 +30°C° 0 mm 0 mps 709 mmHg 33%
    19:00 +31°C° 0 mm 1 mps 710 mmHg 36%
    20:00 +30°C° 0 mm 1 mps 710 mmHg 38%
    21:00 +29°C° 0 mm 1 mps 711 mmHg 40%
    22:00 +28°C° 0.2 mm 1 mps 711 mmHg 50%
    23:00 +27°C° 0.2 mm 1 mps 711 mmHg 60%

    Tomorrow, 19 November, Tuesday

    Time Temperature Precipitation Wind Pressure Humidity
    00:00 +26°C° 0.2 mm 1 mps 712 mmHg 69%
    01:00 +25°C° 0.1 mm 1 mps 711 mmHg 75%
    02:00 +24°C° 0.1 mm 1 mps 711 mmHg 81%
    03:00 +21°C° 0.1 mm 0 mps 711 mmHg 87%
    04:00 +21°C° 0 mm 0 mps 711 mmHg 86%
    05:00 +21°C° 0 mm 0 mps 712 mmHg 85%
    06:00 +21°C° 0 mm 0 mps 712 mmHg 84%
    07:00 +26°C° 0 mm 1 mps 713 mmHg 73%
    08:00 +28°C° 0 mm 1 mps 713 mmHg 62%
    09:00 +31°C° 0 mm 2 mps 713 mmHg 51%
    10:00 +34°C° 0 mm 2 mps 713 mmHg 45%
    11:00 +35°C° 0 mm 1 mps 713 mmHg 39%
    12:00 +37°C° 0 mm 1 mps 712 mmHg 32%
    13:00 +36°C° 0 mm 1 mps 711 mmHg 32%
    14:00 +36°C° 0 mm 1 mps 710 mmHg 31%
    15:00 +36°C° 0 mm 1 mps 709 mmHg 31%
    16:00 +34°C° 0 mm 1 mps 709 mmHg 33%
    17:00 +32°C° 0 mm 1 mps 709 mmHg 36%
    18:00 +31°C° 0 mm 1 mps 709 mmHg 39%
    19:00 +30°C° 0 mm 1 mps 710 mmHg 42%
    20:00 +28°C° 0 mm 1 mps 710 mmHg 46%
    21:00 +27°C° 0 mm 1 mps 711 mmHg 49%
    22:00 +27°C° 0 mm 1 mps 711 mmHg 54%
    23:00 +27°C° 0 mm 2 mps 711 mmHg 59%

    Day after tomorrow, 20 November, Wednesday

    Time Temperature Precipitation Wind Pressure Humidity
    00:00 +26°C° 0 mm 2 mps 711 mmHg 64%
    01:00 +25°C° 0 mm 2 mps 711 mmHg 69%
    02:00 +24°C° 0 mm 1 mps 711 mmHg 74%
    03:00 +24°C° 0 mm 1 mps 711 mmHg 78%
    04:00 +24°C° 0 mm 1 mps 711 mmHg 78%
    05:00 +24°C° 0 mm 1 mps 712 mmHg 77%
    06:00 +24°C° 0 mm 1 mps 712 mmHg 77%
    07:00 +27°C° 0 mm 1 mps 712 mmHg 66%
    08:00 +30°C° 0 mm 1 mps 713 mmHg 55%
    09:00 +34°C° 0 mm 2 mps 713 mmHg 44%
    10:00 +34°C° 0 mm 2 mps 713 mmHg 41%
    11:00 +35°C° 0 mm 2 mps 712 mmHg 38%
    12:00 +36°C° 0 mm 2 mps 711 mmHg 35%
    13:00 +37°C° 0 mm 2 mps 711 mmHg 32%
    14:00 +37°C° 0 mm 2 mps 710 mmHg 29%
    15:00 +38°C° 0 mm 2 mps 709 mmHg 27%
    16:00 +35°C° 0 mm 1 mps 709 mmHg 30%
    17:00 +33°C° 0 mm 1 mps 709 mmHg 33%
    18:00 +31°C° 0 mm 1 mps 709 mmHg 36%
    19:00 +31°C° 0 mm 1 mps 710 mmHg 38%
    20:00 +30°C° 0 mm 1 mps 710 mmHg 40%
    21:00 +29°C° 0 mm 1 mps 710 mmHg 42%
    22:00 +28°C° 0 mm 1 mps 711 mmHg 48%
    23:00 +27°C° 0 mm 1 mps 711 mmHg 54%

    21 November, Thursday

    Time Temperature Precipitation Wind Pressure Humidity
    00:00 +26°C° 0 mm 2 mps 711 mmHg 60%
    01:00 +26°C° 0 mm 2 mps 711 mmHg 63%
    02:00 +25°C° 0 mm 2 mps 711 mmHg 66%
    03:00 +24°C° 0 mm 1 mps 711 mmHg 70%
    04:00 +24°C° 0 mm 1 mps 711 mmHg 71%
    05:00 +24°C° 0 mm 1 mps 711 mmHg 72%
    06:00 +23°C° 0 mm 1 mps 711 mmHg 72%
    07:00 +26°C° 0 mm 2 mps 712 mmHg 61%
    08:00 +29°C° 0 mm 2 mps 713 mmHg 49%
    09:00 +33°C° 0 mm 3 mps 713 mmHg 38%
    10:00 +35°C° 0 mm 2 mps 712 mmHg 33%
    11:00 +37°C° 0 mm 2 mps 712 mmHg 29%
    12:00 +39°C° 0 mm 2 mps 711 mmHg 24%
    13:00 +39°C° 0 mm 2 mps 711 mmHg 23%
    14:00 +38°C° 0 mm 2 mps 710 mmHg 22%
    15:00 +38°C° 0 mm 2 mps 709 mmHg 22%
    16:00 +36°C° 0 mm 2 mps 709 mmHg 25%
    17:00 +34°C° 0 mm 1 mps 709 mmHg 28%
    18:00 +32°C° 0 mm 1 mps 709 mmHg 30%
    19:00 +31°C° 0 mm 1 mps 709 mmHg 33%
    20:00 +30°C° 0 mm 1 mps 710 mmHg 35%
    21:00 +29°C° 0 mm 1 mps 710 mmHg 37%
    22:00 +28°C° 0 mm 1 mps 710 mmHg 45%
    23:00 +27°C° 0 mm 1 mps 710 mmHg 53%

    22 November, Friday

    Time Temperature Precipitation Wind Pressure Humidity
    00:00 +26°C° 0 mm 2 mps 710 mmHg 62%
    01:00 +24°C° 0 mm 1 mps 710 mmHg 66%
    02:00 +23°C° 0 mm 1 mps 710 mmHg 71%
    03:00 +22°C° 0 mm 1 mps 710 mmHg 76%
    04:00 +22°C° 0 mm 1 mps 710 mmHg 75%
    05:00 +22°C° 0 mm 1 mps 710 mmHg 75%
    06:00 +22°C° 0 mm 1 mps 711 mmHg 74%
    07:00 +25°C° 0 mm 1 mps 711 mmHg 62%
    08:00 +28°C° 0 mm 2 mps 712 mmHg 51%
    09:00 +31°C° 0 mm 2 mps 712 mmHg 39%
    10:00 +34°C° 0 mm 2 mps 712 mmHg 34%
    11:00 +37°C° 0 mm 2 mps 711 mmHg 29%
    12:00 +39°C° 0 mm 2 mps 711 mmHg 24%
    13:00 +39°C° 0 mm 2 mps 710 mmHg 23%
    14:00 +39°C° 0 mm 3 mps 709 mmHg 21%
    15:00 +39°C° 0 mm 3 mps 709 mmHg 19%
    16:00 +37°C° 0 mm 2 mps 709 mmHg 22%
    17:00 +35°C° 0 mm 2 mps 708 mmHg 25%
    18:00 +31°C° 0 mm 2 mps 708 mmHg 28%
    19:00 +30°C° 0 mm 1 mps 709 mmHg 30%
    20:00 +28°C° 0 mm 1 mps 709 mmHg 33%
    21:00 +25°C° 0 mm 0 mps 710 mmHg 36%
    22:00 +26°C° 0 mm 1 mps 710 mmHg 46%
    23:00 +24°C° 0 mm 1 mps 710 mmHg 56%

    23 November, Saturday

    Time Temperature Precipitation Wind Pressure Humidity
    00:00 +23°C° 0 mm 1 mps 710 mmHg 67%
    01:00 +23°C° 0 mm 1 mps 710 mmHg 71%
    02:00 +22°C° 0 mm 1 mps 710 mmHg 75%
    03:00 +21°C° 0 mm 1 mps 710 mmHg 80%
    04:00 +20°C° 0 mm 0 mps 710 mmHg 79%
    05:00 +20°C° 0 mm 0 mps 711 mmHg 78%
    06:00 +20°C° 0 mm 0 mps 711 mmHg 77%
    07:00 +26°C° 0 mm 1 mps 712 mmHg 64%
    08:00 +29°C° 0 mm 1 mps 712 mmHg 50%
    09:00 +32°C° 0 mm 2 mps 713 mmHg 37%
    10:00 +35°C° 0 mm 2 mps 712 mmHg 32%
    11:00 +37°C° 0 mm 2 mps 712 mmHg 27%
    12:00 +39°C° 0 mm 2 mps 712 mmHg 22%
    13:00 +39°C° 0 mm 2 mps 711 mmHg 22%
    14:00 +39°C° 0 mm 2 mps 710 mmHg 21%
    15:00 +39°C° 0 mm 2 mps 709 mmHg 20%
    16:00 +37°C° 0 mm 2 mps 709 mmHg 23%
    17:00 +35°C° 0 mm 2 mps 709 mmHg 26%
    18:00 +32°C° 0 mm 1 mps 709 mmHg 29%
    19:00 +31°C° 0 mm 1 mps 709 mmHg 30%
    20:00 +31°C° 0 mm 1 mps 709 mmHg 31%
    21:00 +30°C° 0 mm 1 mps 710 mmHg 33%
    22:00 +28°C° 0 mm 1 mps 710 mmHg 44%
    23:00 +27°C° 0 mm 2 mps 710 mmHg 56%
    Show more